Location: Val-d'Or
(48.1170°N, 77.7670°W)
Time: 09:41:49
(UTC-04:00)

ISS - Pass Details

Date: 23 May 2018
Orbit: 402 x 407 km, 51.6° (Epoch: 27 May)

Event Time Altitude Azimuth Distance (km) Brightness Sun altitude
Rises 02:23:28 0° 292° (WNW) 2,320 0.1 -19.2°
Reaches altitude 10° 02:25:33 10° 293° (WNW) 1,459 -1.0 -19.1°
Maximum altitude 02:28:49 85° 20° (NNE) 409 -3.9 -18.9°
Drops below altitude 10° 02:32:05 10° 111° (ESE) 1,453 -1.0 -18.8°
Sets 02:34:10 0° 112° (ESE) 2,310 0.0 -18.6°
